Location: Gro� Glienicke
(52.4675°N, 13.1079°E)
Time: 08:28:33
(UTC+00:00)

Landsat 7 - Pass Details

Date: 06 July 2020
Orbit: 701 x 703 km, 98.1° (Epoch: 04 August)

Event Time Altitude Azimuth Distance (km) Brightness Sun altitude
Exits shadow 20:26:08 - 177° (S) 2,823 6.4 -6.7°
Reaches altitude 10° 20:27:46 10° 180° (S) 2,168 5.9 -6.8°
Maximum altitude 20:32:27 57° 259° (W) 832 4.4 -7.3°
Drops below altitude 10° 20:37:10 10° 339° (NNW) 2,183 7.9 -7.7°
Sets 20:39:28 0° 343° (NNW) 3,106 8.8 -7.9°
